Regional Weather Roundup
Issued by NWS

Home | Current Version | Previous Version | Graphics & Text | Print | Product List | Glossary On
Versions: 1 2 3 4 5 6 7 8 9 10 11 12 13 14 15 16 17 18 19 20 21 22 23 24 25 26 27 28 29 30 31 32 33 34 35 36 37 38 39 40 41 42 43 44 45 46 47 48 49 50
000
ASUS43 KIND 101609
RWRIN

WEATHER ROUNDUP FOR INDIANA
NATIONAL WEATHER SERVICE INDIANAPOLIS IN
1100 AM EST SUN DEC 10 2017

NOTE: "FAIR" INDICATES FEW OR NO CLOUDS BELOW 12,000 FEET WITH NO
SIGNIFICANT WEATHER AND/OR OBSTRUCTIONS TO VISIBILITY.

* - STATION DOES NOT REPORT WEATHER SUCH AS PRECIPITATION OR FOG.

+ - STATION NOT QUALITY CONTROLLED BY THE NATIONAL WEATHER SERVICE.
    USE DATA WITH CAUTION...ESPECIALLY DEWPOINT AND RELATIVE
    HUMIDITY OBSERVATIONS.

INZ001>003-010>013-019-020-101700-
NORTHWEST INDIANA

CITY           SKY/WX    TMP DP  RH WIND       PRES   REMARKS
GARY /AIRPORT/ PTSUNNY   30  18  59 S12G23    29.92F WCI  21
KNOX *+        CLOUDY    27  19  74 SW14      29.95F WCI  15
LA PORTE +     MOSUNNY   25  18  74 SW12G17   29.93F WCI  14
MICHIGAN CITY+ CLOUDY    28  18  64 S12G17    29.93F WCI  18
MONTICELLO +   MOSUNNY   28  17  62 SW18G25   29.99F WCI  15
RENSSELAER +   SUNNY     30  19  64 S18       29.96F WCI  18
VALPARAISO     PTSUNNY   27  19  72 SW13      29.93F WCI  16

$$

LMZ046-743>745-101700-
SOUTHERN LAKE MICHIGAN

STATION/POSITION TIME  TEMP    WIND        PRES    WAVE
                       AIR SEA DIR/SP/G            HT
                 (UTC) (F)     (DEG/KT/KT) (MB)    (FT)
BURNS HARBOR     1540   28     210/ 13/ 20 1013.5F
MICHIGAN CITY    1540   26     190/ 15/ 19   N/A

$$

INZ004-005-014>016-021>024-101700-
NORTH CENTRAL INDIANA

CITY           SKY/WX    TMP DP  RH WIND       PRES   REMARKS
ELKHART        CLOUDY    25  16  68 SW12      29.93F WCI  14
GOSHEN         CLOUDY    24  17  74 SW15      29.94F WCI  11
LOGANSPORT +   CLOUDY    28  19  69 SW17      30.00F WCI  16
PERU/GRISSOM   CLOUDY    27  19  72 SW18G24   29.99F WCI  13
ROCHESTER +    CLOUDY    28  19  69 SW10      29.97F WCI  19
SOUTH BEND     CLOUDY    24  18  77 SW16G23   29.93F WCI  11
WARSAW +       CLOUDY    27  18  69 SW9G17    29.96F WCI  17

$$

INZ006>009-017-018-025>027-101700-
NORTHEAST INDIANA

CITY           SKY/WX    TMP DP  RH WIND       PRES   REMARKS
AUBURN +       CLOUDY    27  18  69 SW9       29.98F WCI  17
FORT WAYNE     CLOUDY    25  18  74 SW17      30.00F WCI  12
HUNTINGTON +   CLOUDY    25  16  69 SW12G20   29.99F WCI  14
KENDALLVILLE + CLOUDY    24  17  75 SW10      29.95F WCI  13

$$

INZ028-029-035-036-043>045-051>053-101700-
WEST CENTRAL INDIANA

CITY           SKY/WX    TMP DP  RH WIND       PRES   REMARKS
CRAWFORDSVL +  CLOUDY    27  18  69 MISG        N/A
GREENCASTLE +  CLOUDY    28  18  64 SW7G20    30.06F WCI  21
LAFAYETTE      MOSUNNY   28  18  66 SW12G23   30.01F WCI  18
TERRE HAUTE    PTSUNNY   31  17  56 SW16G28   30.07F WCI  20

$$

INZ030>032-037>040-046>048-054>057-064-065-101700-
CENTRAL INDIANA

CITY           SKY/WX    TMP DP  RH WIND       PRES   REMARKS
COLUMBUS       PTSUNNY   27  18  69 SW12G18   30.11F WCI  16
FRANKFORT +    CLOUDY    31  19  62 SW21G28   30.03S WCI  18
GREENWOOD *+   CLOUDY    31  20  64 SW15G24   30.08S WCI  20
INDIANAPOLIS   CLOUDY    28  17  63 SW21      30.06F WCI  15
-EAGLE CREEK   CLOUDY    28  16  60 SW14G24   30.04F WCI  17
KOKOMO +       CLOUDY    27  19  72 SW17      30.01F WCI  14
MARION +       CLOUDY    25  19  76 SW14      30.02F HAZE    WCI  13
MT COMFORT *+  CLOUDY    27  21  80 SW12      30.06S WCI  16
SHELBYVILLE    CLOUDY    28  17  63 SW15      30.08S WCI  16
ZIONSVILLE +   CLOUDY    26  17  67 SW17      30.03F WCI  13

$$

INZ033-034-041-042-049-050-058-059-101700-
EAST CENTRAL INDIANA

CITY           SKY/WX    TMP DP  RH WIND       PRES   REMARKS
MUNCIE         CLOUDY    27  16  63 SW16G23   30.03F WCI  15
RICHMOND +     CLOUDY    25  19  80 SW14      30.06S WCI  13

$$

INZ060-061-067>069-081>083-085>088-101700-
SOUTHWEST INDIANA

CITY           SKY/WX    TMP DP  RH WIND       PRES   REMARKS
EVANSVILLE     SUNNY     33  22  63 SW16G24   30.18F WCI  23
HUNTINGBURG +  PTSUNNY   32  21  64 SW17      30.17F WCI  21
WASHINGTON +   PTSUNNY   32  18  55 SW13G21   30.14F WCI  22

$$

INZ062-063-066-070>080-084-089>092-101700-
SOUTH CENTRAL AND SOUTHEAST INDIANA

CITY           SKY/WX    TMP DP  RH WIND       PRES   REMARKS
BLOOMINGTON    PTSUNNY   30  17  58 SW17G26   30.09F WCI  18
MADISON *+     CLOUDY    30  19  64 SW14G20   30.15F WCI  20
NORTH VERNON + CLOUDY    27  18  69 SW14      30.13S WCI  15
SEYMOUR +      CLOUDY    32  19  59 SW14G20   30.14S WCI  22

$$





USA.gov is the U.S. government's official web portal to all federal, state and local government web resources and services.